Regional Weather Roundup
Issued by NWS Glasgow, MT

Home | Current Version | Previous Version | Text Only | Print | Product List | Glossary On
Versions: 1 2 3 4 5 6 7 8 9 10 11 12 13 14 15 16 17 18 19 20 21 22 23 24 25 26 27
000
ASUS45 KGGW 170015
RWRGGW
HOURLY WEATHER ROUNDUP FOR NORTHEAST MONTANA
NATIONAL WEATHER SERVICE GLASGOW MONTANA
600 PM MDT WED APR 16 2014

NOTE: "FAIR" INDICATES FEW OR NO CLOUDS BELOW 12,000 FEET WITH NO
SIGNIFICANT WEATHER AND/OR OBSTRUCTIONS TO VISISBILITY.

NORTHEAST MONTANA


CITY           SKY/WX    TMP DP  RH WIND       PRES   REMARKS
GLASGOW        PTSUNNY   35  20  54 E12       30.14R
6HR MIN TEMP:  33; 6HR MAX TEMP:  38;

PLENTYWOOD       N/A     28  21  75 SE6         N/A
WOLF POINT     CLOUDY    34  19  54 E8        30.19R
JORDAN           N/A     38  22  52 E13       30.09R
WINNETT          N/A     42  27  55 E5          N/A
SIDNEY         CLOUDY    30  19  64 E10       30.21R
GLENDIVE       CLOUDY    32  19  59 NE10      30.16R

FORT PECK REPORTS


CITY           SKY/WX    TMP DP  RH WIND       PRES   REMARKS
FORT PECK        N/A     36  23  59 E12         N/A
THE PINES        N/A     36  23  59 E5          N/A

SOUTHEAST MONTANA


CITY           SKY/WX    TMP DP  RH WIND       PRES   REMARKS
BILLINGS       DRIZZLE   43  30  60 VRB5      30.01R
MILES CITY     CLOUDY    42  23  46 E7        30.07S
BAKER          CLOUDY    32  23  69 E14       30.11R
LIVINGSTON     MOSUNNY   50  19  29 W10       29.94F

CENTRAL MONTANA


CITY           SKY/WX    TMP DP  RH WIND       PRES   REMARKS
HAVRE          CLOUDY    44  29  55 E14       30.02F
LEWISTOWN      CLOUDY    36  32  85 S5        30.01R
GREAT FALLS    MOSUNNY   41  36  82 E8        29.97S
CUT BANK       CLOUDY    35  31  85 CALM      29.96F
HELENA         PTSUNNY   49  23  36 W13       29.95R
BUTTE          CLOUDY    44  17  33 NW12      29.96S
BOZEMAN        PTSUNNY   48  21  34 NW10      29.96R

WESTERN MONTANA


CITY           SKY/WX    TMP DP  RH WIND       PRES   REMARKS
MISSOULA       CLOUDY    48  30  49 SE7       30.00F
KALISPELL      NOT AVBL

NORTH DAKOTA


CITY           SKY/WX    TMP DP  RH WIND       PRES   REMARKS
WILLISTON        N/A    N/A N/A N/A MISG      30.23R
DICKINSON      CLOUDY    29  20  69 E13       30.14R
MINOT          CLOUDY    33  17  51 NE13      30.23R
BISMARCK       CLOUDY    37  15  40 NE10      30.19R

SOUTHERN SASKATCHEWAN


CITY           SKY/WX    TMP DP  RH WIND       PRES   REMARKS
REGINA         FLURRIES  30  18  59 E10       30.27R
MOOSE JAW      CLOUDY   N/A N/A N/A SE12        N/A
ESTEVAN        PTSUNNY   30  19  64 E12       30.26R
SWIFT CURRENT  CLOUDY    28  23  80 SE16      30.13S




USA.gov is the U.S. government's official web portal to all federal, state and local government web resources and services.